Regional Weather Roundup
Issued by NWS

Home | Current Version | Previous Version | Text Only | Print | Product List | Glossary Off
Versions: 1 2 3 4 5 6 7 8 9 10 11 12 13 14 15 16 17 18 19 20 21 22 23 24 25 26 27 28 29 30 31 32 33 34 35 36 37 38 39 40 41 42 43 44 45 46 47 48 49 50

000
ASUS43 KDTX 240210
RWRMI
MICHIGAN HOURLY REGIONAL WEATHER ROUNDUP
NATIONAL WEATHER SERVICE DETROIT/PONTIAC MI
900 PM EST THU NOV 23 2017

NOTE: "FAIR" INDICATES FEW OR NO CLOUDS BELOW 12,000 FEET WITH NO
SIGNIFICANT WEATHER AND/OR OBSTRUCTION TO VISIBILITY.

MIZ047>049-052>055-059>063-066>070-074>076-081>083-240300-
SOUTHEAST LOWER MICHIGAN

CITY           SKY/WX    TMP DP  RH WIND       PRES   REMARKS
ADRIAN         CLOUDY    30  25  81 SW3       29.99S
ALMA           CLEAR     32  31  94 S5        29.93F WCI  28
ANN ARBOR      CLOUDY    28  25  88 CALM      29.98R
BAD AXE        CLEAR     31  23  73 SW6       29.92F WCI  25
CARO           PTCLDY    29  23  80 CALM      29.93F
DETROIT CITY   CLOUDY    38  25  59 SW13      29.99R WCI  30
DETROIT        MOCLDY    32  25  75 S5        30.00R WCI  27
FLINT          CLOUDY    37  22  54 SW6       29.96S WCI  32
GROSSE ILE     MOCLDY    37  27  67 SW5       29.99R WCI  33
HILLSDALE      CLEAR     32  21  64 S6        29.95S WCI  26
HOWELL         CLOUDY    35  25  66 S3        29.96S

CITY           SKY/WX    TMP DP  RH WIND       PRES   REMARKS
JACKSON        CLEAR     33  20  58 S3        29.96F
LAMBERTVILLE   CLOUDY    33  26  76 S3        30.00R
LANSING        CLOUDY    37  24  59 S6        29.95F WCI  32
LAPEER         CLOUDY    36  24  62 SW6       29.96R WCI  32
MASON          CLOUDY    37  24  60 CALM      29.96R
MONROE         CLEAR     30  26  84 CALM      29.99R
MT. CLEMENS    CLOUDY    38  26  61 SW9       29.96R WCI  32
PONTIAC        CLOUDY    36  24  62 SW7       29.96R WCI  30
PORT HOPE        N/A     36  22  56 SW6       29.90F WCI  31
PORT HURON     CLOUDY    37  23  56 SW6       29.97S WCI  33
TRI CITIES     PTCLDY    38  27  64 SW7       29.93F WCI  33
MIDLAND        FAIR      34  28  80 S3        29.91F
TROY           CLOUDY    39  25  56 SW5       30.00R
SAGINAW HB     PTCLDY    34  25  69 S7        29.93F WCI  28
$$
MIZ043>046-050>051-056>058-064>065-071>073-077>080-240300-
SOUTHWEST LOWER MICHIGAN

CITY           SKY/WX    TMP DP  RH WIND       PRES   REMARKS
BATTLE CREEK   CLOUDY    36  24  62 S8        29.94F WCI  30
BENTON HARBOR  CLEAR     37  24  59 S5        29.93F WCI  33
BIG RAPIDS     CLEAR     28  25  87 CALM      29.89F
COLDWATER      CLEAR     33  23  65 SW6       29.95F WCI  28
FREMONT        FAIR      32  28  84 CALM      29.90S
HOLLAND        CLEAR     33  27  78 SE3       29.94S
GRAND RAPIDS   PTCLDY    32  27  81 S6        29.93S WCI  26
IONIA          FAIR      35  24  64 S5        29.93S WCI  31
KALAMAZOO      CLEAR     35  23  61 S6        29.94F WCI  30
LUDINGTON      CLEAR     27  24  87 CALM      29.89S
MARSHALL       CLEAR     32  21  64 S3        29.94S
MOUNT PLEASANT CLEAR     35  28  74 CALM      29.91S
MUSKEGON       PTCLDY    30  25  81 SE3       29.91F
SOUTH HAVEN    CLEAR     35  25  66 CALM      29.93S
$$
MIZ016>042-240300-
NORTHERN LOWER MICHIGAN

CITY           SKY/WX    TMP DP  RH WIND       PRES   REMARKS
ALPENA         CLOUDY    30  27  88 CALM      29.88F
BEAVER ISLAND  CLEAR     31  26  83 CALM      29.83F
BELLAIRE       CLEAR     32  29  88 CALM      29.88F
CADILLAC       CLEAR     28  25  88 S3        29.86R
CHARLEVOIX     CLEAR     34  28  76 S3        29.88F
FRANKFORT      CLEAR     33  26  74 SE3       29.86F
GAYLORD        CLEAR     28  23  81 SW7       29.84F WCI  21
GRAYLING       CLEAR     28  24  86 CALM      29.88S
HARBOR SPRINGS MOCLDY    35  27  74 S7        29.85F WCI  29
HOUGHTON LAKE  CLEAR     32  24  72 SW5       29.88F WCI  27
OSCODA         CLEAR     30  23  75 SW5       29.89S WCI  25
PELLSTON       MOCLDY    27  25  92 S3        29.85F
ROGERS CITY    CLOUDY    35  28  74 SW6       29.87F WCI  30
TRAVERSE CITY  PTCLDY    33  25  72 SE3       29.86F
$$
MIZ007>008-015-240300-
EASTERN UPPER MICHIGAN

CITY           SKY/WX    TMP DP  RH WIND       PRES   REMARKS
KINROSS        CLOUDY    32  24  72 CALM      29.83F
MACKINAC ISLAN CLEAR     35  26  68 W6        29.83F WCI  30
NEWBERRY       MOCLDY    28  25  89 S5        29.79F WCI  22
S. S. MARIE    CLOUDY    34  25  69 SW9       29.82S WCI  27
MUNISING         N/A     30  23  75 S6        29.77F WCI  24
$$
MIZ004>006-011>014-085-240300-
CENTRAL UPPER MICHIGAN

CITY           SKY/WX    TMP DP  RH WIND       PRES   REMARKS
MANISTIQUE     PTCLDY    36  24  61 S8        29.80F WCI  30
ESCANABA       PTCLDY    35  21  56 SW10      29.81F WCI  27
MENOMINEE      CLEAR     34  24  67 SW5       29.84F WCI  30
SAWYER-GWINN   PTCLDY    30  21  69 S10       29.75F WCI  21
$$
MIZ001>003-009>011-084-240300-
WESTERN UPPER MICHIGAN

CITY           SKY/WX    TMP DP  RH WIND       PRES   REMARKS
IRON MOUNTAIN  CLOUDY    34  21  59 SE8       29.73F WCI  27
HOUGHTON       CLOUDY    31  26  82 SE5       29.68F WCI  26
COPPER HARBOR    N/A     34  28  79 CALM      29.71F
IRONWOOD       CLOUDY    37  23  56 SW8G16    29.66F WCI  31
$$

ABBREVIATIONS USED IN REMARKS
   TC - TEMPERATURE IN CELSIUS
  WCI - WIND CHILL INDEX
   HX - HEAT INDEX
  VSB - VISIBILITY





USA.gov is the U.S. government's official web portal to all federal, state and local government web resources and services.